Location: ??? ???
(33.4974°N, 35.4618°E)
Time: 17:50:35
(UTC+00:00)

Cosmos 967 Rocket - Pass Details

Date: 29 October 2020
Orbit: 953 x 984 km, 65.8° (Epoch: 30 November)

Event Time Altitude Azimuth Distance (km) Brightness Sun altitude
Rises 16:40:03 0° 206° (SSW) 3,673 7.9 -23.7°
Reaches altitude 10° 16:42:36 10° 207° (SSW) 2,726 7.2 -24.3°
Maximum altitude 16:49:00 87° 295° (WNW) 985 4.4 -25.6°
Enters shadow 16:51:55 35° 25° (NNE) 1,519 5.3 -26.2°
